Easton, MD

12:13 AM EDT on June 29, 2017 (GMT -0400)
Easton / Newnam

Weather History for KESN - October, 2013

Change the Weather History Date:

Monday, October 7, 2013

  Actual Average Record
Temperature  
Mean Temperature 72 °F -  
Max Temperature 84 °F 73 °F 87 °F (2007)
Min Temperature 60 °F 49 °F 32 °F (1964)
Cooling Degree Days 7    
Growing Degree Days 22 (Base 50)    
Moisture  
Dew Point 68 °F    
Average Humidity 95    
Maximum Humidity 100    
Minimum Humidity 66    
Precipitation  
Precipitation 0.00 in - - ()
Sea Level Pressure  
Sea Level Pressure 29.97 in    
Wind  
Wind Speed 9 mph (South)    
Max Wind Speed 21 mph    
Max Gust Speed 30 mph    
Visibility 9 miles    
Events Rain    
Averages and records for this station are not official NWS values.
T = Trace of Precipitation, MM = Missing Value Source: NWS Daily Summary

Daily Weather History Graph

Daily Weather History Graph

Search for Another Location

Airport or City:

Trip Planner

Search our weather history database for the weather conditions in past years. The results will help you decide how hot, cold, wet, or windy it might be!

Date:

Astronomy

Oct. 07, 2013 Rise Set
Actual Time 7:06 AM EDT 6:37 PM EDT
Civil Twilight 6:39 AM EDT 7:03 PM EDT
Nautical Twilight 6:08 AM EDT 7:34 PM EDT
Astronomical Twilight 5:37 AM EDT 8:05 PM EDT
Moon 9:51 AM EDT (10/7) 8:22 PM EDT (10/7)
Length of Visible Light 12h 24m
Length of Day
11h 31m
Waxing Crescent, 8% of the Moon is Illuminated
Oct 7
Waxing Crescent
Oct 11
First Quarter
Oct 18
Full
Oct 26
Last Quarter
Nov 3
New

Hourly Weather History & Observations

Time (EDT) Temp. Heat Index Dew Point Humidity Pressure Visibility Wind Dir Wind Speed Gust Speed Precip Events Conditions
12:09 AM 72.5 °F - 69.4 °F 90% 30.01 in 10.0 mi South 10.4 mph - N/A   Clear
12:29 AM 72.3 °F - 69.8 °F 92% 30.01 in 10.0 mi South 9.2 mph - N/A   Clear
12:49 AM 71.8 °F - 70.5 °F 96% 30.00 in 10.0 mi South 9.2 mph - N/A   Clear
1:09 AM 72.0 °F - 71.4 °F 98% 30.00 in 10.0 mi South 8.1 mph - N/A   Clear
1:29 AM 71.4 °F - 71.4 °F 100% 30.00 in 10.0 mi South 8.1 mph - N/A   Clear
1:49 AM 71.6 °F - 71.6 °F 100% 30.00 in 10.0 mi South 8.1 mph - N/A   Clear
2:09 AM 71.4 °F - 71.4 °F 100% 29.99 in 10.0 mi SSE 8.1 mph - N/A   Clear
2:29 AM 71.1 °F - 71.1 °F 100% 29.98 in 10.0 mi SSE 8.1 mph - N/A   Clear
2:49 AM 71.1 °F - 71.1 °F 100% 29.98 in 10.0 mi South 6.9 mph - N/A   Clear
3:09 AM 71.2 °F - 71.2 °F 100% 29.97 in 10.0 mi South 6.9 mph - N/A   Scattered Clouds
3:29 AM 71.6 °F - 71.6 °F 100% 29.97 in 10.0 mi South 6.9 mph - N/A   Clear
3:50 AM 71.6 °F - 71.6 °F 100% 29.96 in 10.0 mi SSE 6.9 mph - N/A   Clear
4:10 AM 71.6 °F - 71.6 °F 100% 29.95 in 10.0 mi SSE 8.1 mph - N/A   Clear
4:30 AM 71.8 °F - 71.8 °F 100% 29.95 in 10.0 mi SSE 8.1 mph - N/A   Scattered Clouds
4:50 AM 72.0 °F - 72.0 °F 100% 29.94 in 10.0 mi SSE 9.2 mph - N/A   Scattered Clouds
5:10 AM 72.1 °F - 72.1 °F 100% 29.95 in 10.0 mi South 6.9 mph - N/A   Mostly Cloudy
5:30 AM 71.8 °F - 71.8 °F 100% 29.94 in 10.0 mi South 6.9 mph - N/A   Mostly Cloudy
5:45 AM 71.6 °F - 71.6 °F 100% 29.93 in 10.0 mi SSE 8.1 mph - N/A   Mostly Cloudy
5:50 AM 72.0 °F - 72.0 °F 100% 29.93 in 10.0 mi South 8.1 mph - N/A   Scattered Clouds
6:10 AM 72.0 °F - 72.0 °F 100% 29.93 in 10.0 mi South 5.8 mph - N/A   Mostly Cloudy
6:30 AM 72.1 °F - 72.1 °F 100% 29.93 in 10.0 mi South 8.1 mph - N/A   Mostly Cloudy
6:46 AM 72.5 °F - 72.5 °F 100% 29.93 in 10.0 mi South 8.1 mph - N/A Rain Light Rain
6:50 AM 71.6 °F - 71.6 °F 100% 29.93 in 10.0 mi South 9.2 mph - N/A   Overcast
7:50 AM 73.4 °F - 73.4 °F 100% 29.91 in 10.0 mi SSW 9.2 mph - N/A   Mostly Cloudy
8:55 AM 75.2 °F - 75.2 °F 100% 29.90 in 10.0 mi South 13.8 mph 19.6 mph N/A   Overcast
9:50 AM 77.0 °F - 77.0 °F 100% 29.90 in 10.0 mi SSW 17.3 mph 24.2 mph N/A   Overcast
10:50 AM 78.8 °F - 73.4 °F 83% 29.88 in 10.0 mi SSW 16.1 mph 26.5 mph N/A   Overcast
12:45 PM 84.2 °F 89.6 °F 71.6 °F 66% 29.87 in 10.0 mi SSW 20.7 mph 27.6 mph N/A   Mostly Cloudy
1:55 PM 71.6 °F - 66.2 °F 83% 29.89 in 3.0 mi West 12.7 mph 29.9 mph N/A Rain Rain
2:45 PM 68.0 °F - 68.0 °F 100% 29.90 in 5.0 mi WSW 11.5 mph 19.6 mph N/A Rain Rain
3:47 PM 68.0 °F - 68.0 °F 100% 29.91 in 7.0 mi WSW 5.8 mph 20.7 mph N/A Rain Rain
4:33 PM 68.0 °F - 68.0 °F 100% 29.93 in 5.0 mi WSW 6.9 mph - N/A   Overcast
4:53 PM 64.4 °F - 64.4 °F 100% 29.95 in 2.0 mi NNW 16.1 mph 21.9 mph N/A Rain Light Rain
5:53 PM 60.8 °F - 60.8 °F 100% 29.96 in 7.0 mi SSW 18.4 mph - N/A   Overcast
6:53 PM 62.6 °F - 62.6 °F 100% 29.98 in 10.0 mi Calm Calm - N/A   Mostly Cloudy
7:53 PM 62.6 °F - 62.6 °F 100% 30.00 in 10.0 mi Calm Calm - N/A   Overcast
8:53 PM 62.6 °F - 62.6 °F 100% 30.01 in 10.0 mi Calm Calm - N/A   Mostly Cloudy
9:52 PM 63.1 °F - 63.1 °F 100% 30.02 in 10.0 mi North 5.8 mph - N/A   Overcast
10:12 PM 63.5 °F - 60.4 °F 90% 30.03 in 10.0 mi North 4.6 mph - N/A   Overcast
10:32 PM 62.6 °F - 55.0 °F 76% 30.05 in 10.0 mi North 5.8 mph - N/A   Mostly Cloudy
10:52 PM 62.1 °F - 54.7 °F 77% 30.05 in 10.0 mi North 3.5 mph - N/A   Mostly Cloudy
11:12 PM 62.4 °F - 54.9 °F 76% 30.06 in 10.0 mi Calm Calm - N/A   Overcast
11:32 PM 62.8 °F - 52.9 °F 70% 30.06 in 10.0 mi North 5.8 mph - N/A   Overcast
11:52 PM 62.6 °F - 51.4 °F 67% 30.07 in 10.0 mi North 5.8 mph - N/A   Overcast